Regional Weather Roundup
Issued by NWS

Home | Current Version | Previous Version | Graphics & Text | Print | Product List | Glossary On
Versions: 1 2 3 4 5 6 7 8 9 10 11 12 13 14 15 16 17 18 19 20 21 22 23 24 25 26 27
000
ASUS45 KCYS 032310
RWRWY

WYOMING REGIONAL WEATHER ROUNDUP
NATIONAL WEATHER SERVICE CHEYENNE WY
500 PM MDT TUE MAY 03 2016

NOTE:  "FAIR" INDICATES FEW OR NO CLOUDS BELOW 12,000 FEET
WITH NO SIGNIFICANT WEATHER AND/OR OBSTRUCTIONS TO VISIBILITY.

WYZ001-040000-
YELLOWSTONE NATIONAL PARK

CITY           SKY/WX    TMP DP  RH WIND       PRES   REMARKS
LK YELLOWSTONE   N/A     50  24  36 CALM      30.33F
W YELLOWSTONE  NOT AVBL

$$
WYZ002>013-054>058-071-098>099-040000-
NORTHERN WYOMING

CITY           SKY/WX    TMP DP  RH WIND       PRES   REMARKS
JACKSON        FAIR      66  18  15 N7        30.24S
CODY           FAIR      72  30  21 E7        30.15F
GREYBULL       FAIR      76  19  11 VRB3      30.10F
WORLAND        FAIR      73  29  19 SW6       30.13F
SHERIDAN       FAIR      73  35  25 SE5       30.14S
BUFFALO        FAIR      70  33  25 N8        30.19S
GILLETTE       FAIR      70  38  31 NW14      30.15S
HULETT         FAIR      70  34  26 N8        30.15S
NEWCASTLE      FAIR      72  30  21 N10G17    30.12S

$$
WYZ014>020-022>026-101>103-040000-
CENTRAL WYOMING

CITY           SKY/WX    TMP DP  RH WIND       PRES   REMARKS
BIG PINEY      FAIR      67  20  16 MISG      30.25F
PINEDALE       FAIR      64  19  17 W3        30.26S
DUBOIS         MOCLDY    61  21  21 SE9G18    30.24S
LANDER         FAIR      68  32  26 SE8       30.19F
RIVERTON       FAIR      68  30  24 VRB5      30.20F
CASPER         FAIR      66  30  26 CALM      30.20S
DOUGLAS        FAIR      70  35  27 NW13      30.19R

$$
WYZ021-027>030-104>119-040000-
SOUTHERN WYOMING

CITY           SKY/WX    TMP DP  RH WIND       PRES   REMARKS
EVANSTON       FAIR      67  19  16 VRB7      30.26F
KEMMERER         N/A     66  18  15 N3        30.28S
FORT BRIDGER   CLEAR     66  19  16 E8        30.30F
ROCK SPRINGS   FAIR      64  21  19 CALM      30.26F
DIXON          FAIR      67  28  23 CALM      30.26S
RAWLINS        FAIR      64  23  21 W8        30.26F
SARATOGA       FAIR      61  25  25 NW8       30.29S
LARAMIE        FAIR      57  32  38 NW12      30.27F
CHEYENNE       FAIR      62  32  32 NW15G23   30.23S
TORRINGTON     FAIR      72  34  24 N14G22    30.11S
PINE BLUFFS    FAIR      64  34  32 N17       30.18S

$$




USA.gov is the U.S. government's official web portal to all federal, state and local government web resources and services.